Dewpoint
56 56 56 56 56 56 56 56 56 56 56 56 56 57 57 56 55 56 57 54 54 56 59 57 56 50 39 29 29 34 47 43 40 41 33 31 28 26 23 24 25 29 30 26 25 24 23
56 56 56 56 56 56 56 56 56 55 55 55 55 55 56 54 53 53 55 56 55 56 54 54 52 49 32 23 33 35 38 35 35 33 31 30 27 25 22 23 24 26 22 21 24 26 28
56 56 56 56 55 56 56 56 55 55 55 54 54 55 55 55 55 54 55 54 55 54 52 51 50 36 33 31 35 37 38 34 35 32 31 34 26 24 24 22 24 18 17 23 25 28 28
55 55 55 55 55 55 55 55 56 55 55 55 53 54 54 52 52 54 53 54 52 50 50 49 51 35 31 36 38 38 38 34 33 33 33 31 30 26 24 24 21 16 14 12 24 31 31
55 55 54 55 55 55 55 55 55 55 54 54 54 53 52 51 51 51 50 52 52 52 51 52 37 32 27 40 36 38 39 34 34 38 39 32 33 29 25 18 15 14 7 16 22 31 30
56 55 55 55 54 54 55 55 55 55 54 54 54 53 53 52 51 53 51 51 51 50 44 35 34 26 33 33 38 39 40 38 31 31 32 29 28 25 25 19 13 11 12 16 18 26 28
56 56 56 55 54 54 54 55 55 55 55 54 54 54 53 52 53 52 47 40 32 35 37 36 35 33 37 40 40 39 41 35 31 32 23 28 29 26 28 27 22 19 17 18 21 31 25
56 56 56 55 55 54 54 54 55 54 54 54 54 55 51 51 51 51 44 38 39 37 29 35 37 37 39 40 31 37 39 27 29 27 26 26 27 30 32 27 23 21 17 17 22 29 24
56 56 56 56 55 55 54 54 55 54 54 53 54 54 53 51 49 44 42 42 44 41 26 24 35 35 36 37 35 35 36 34 28 27 25 23 28 32 26 24 22 27 20 24 24 27 25
56 56 56 56 56 55 54 54 54 54 53 53 53 54 52 51 42 40 39 44 46 40 29 20 29 34 36 38 31 37 39 33 31 27 29 29 31 30 27 27 22 16 30 28 27 21 14
56 56 56 56 56 56 55 54 54 54 54 53 53 53 51 47 39 36 42 45 43 33 18 20 29 36 37 28 29 31 37 33 30 30 23 28 28 28 28 29 27 23 31 29 29 27 24
55 56 56 57 56 56 56 55 54 54 54 53 53 51 49 44 43 43 45 42 34 26 7 22 30 30 28 30 32 31 30 33 34 29 32 31 34 32 31 33 32 32 24 24 25 26 18
55 55 56 56 56 56 56 55 55 54 54 52 51 50 45 43 36 44 41 32 23 18 18 21 27 29 27 26 27 26 26 25 22 18 21 26 28 33 33 30 32 25 22 19 17 17 17
54 55 55 56 56 55 56 55 55 54 54 51 49 46 42 42 44 43 32 22 14 17 19 26 28 25 25 25 26 26 24 19 24 23 23 18 15 30 33 30 27 25 20 19 6 6 7
54 54 55 55 55 54 55 55 55 54 54 50 47 40 37 41 43 37 27 22 19 20 26 26 24 16 19 23 24 24 24 24 25 22 14 15 17 32 33 34 28 26 23 20 14 16 15
53 54 55 54 54 54 55 55 54 54 53 49 39 32 36 41 41 33 28 25 26 28 32 27 19 21 16 20 18 19 23 27 26 27 24 19 12 26 32 33 32 26 24 18 20 2 3
52 53 53 53 54 54 54 55 54 53 53 48 33 29 34 41 36 31 25 25 29 31 31 25 23 19 21 22 19 17 21 27 28 26 22 17 9 15 28 27 26 28 26 22 18 13 3
53 52 53 53 54 54 54 54 54 53 51 40 35 33 39 35 29 29 28 29 34 29 28 28 25 22 20 19 15 15 19 24 30 27 22 24 9 10 16 26 26 26 23 19 15 4 15
53 53 52 53 53 54 54 54 54 53 51 40 35 34 39 30 23 26 28 29 31 27 27 25 24 24 22 20 14 17 23 29 31 26 23 20 9 7 5 16 23 26 26 21 19 19 15
53 53 54 53 53 53 54 53 53 52 50 38 33 31 35 32 28 26 24 26 24 29 28 27 26 23 21 19 20 16 21 28 31 30 32 23 13 3 4 1 19 21 22 24 21 21 15
54 54 54 54 54 53 54 53 53 52 50 39 34 30 30 30 30 25 26 25 23 22 27 27 21 21 19 15 18 17 20 26 29 34 29 22 15 15 16 12 16 16 18 24 22 23 18
54 54 54 54 54 53 53 53 53 51 48 38 35 33 34 32 31 27 27 21 23 23 22 23 19 23 25 18 12 11 17 21 17 29 28 27 18 22 22 24 23 23 22 19 22 23 24
54 54 54 54 54 53 53 53 53 51 46 39 38 37 35 33 30 28 28 25 24 25 26 26 25 24 23 23 23 20 19 19 20 27 27 26 23 25 23 25 24 23 24 25 22 22 22
55 54 54 54 54 53 52 53 53 52 45 41 39 38 34 30 32 32 31 31 29 29 26 28 27 25 28 31 30 30 29 28 26 27 28 26 24 25 23 24 19 25 25 26 25 25 24
53 54 55 54 54 54 52 52 52 52 49 42 40 38 36 31 33 32 31 31 30 31 31 29 29 30 32 31 29 28 28 27 27 27 27 28 26 24 23 22 23 25 19 20 21 19 24
50 52 53 54 54 53 53 52 53 53 49 43 41 40 38 34 32 33 32 30 30 29 31 31 33 33 32 31 29 25 23 25 24 24 27 27 27 25 24 22 21 23 21 21 20 21 25
49 50 53 54 54 53 53 53 52 53 49 44 42 41 39 35 36 34 33 32 33 30 31 30 30 30 31 29 28 26 25 25 24 22 23 24 25 24 24 26 25 26 25 23 20 21 28
50 51 52 53 53 53 54 54 53 52 51 47 44 43 40 36 37 37 37 34 33 32 32 32 31 31 30 28 28 27 25 27 24 24 24 24 23 23 24 24 20 26 23 20 23 29 29
47 47 48 50 51 53 53 54 54 53 53 49 44 43 43 41 39 39 39 38 37 36 34 33 32 31 32 29 28 28 28 26 25 24 25 24 25 24 24 24 27 30 26 28 31 32 31
Lifted_Index
5 5 5 4 3 3 2 2 2 2 2 2 2 1 1 1 2 1 0 -0 -0 -0 1 2 3 5 6 6 8 9 9 9 8 7 7 7 8 8 7 7 7 7 6 6 6 6 6
5 5 5 4 3 3 2 2 2 2 2 2 2 2 2 2 2 1 1 0 0 1 2 4 5 6 6 7 8 8 8 8 7 7 7 7 8 8 8 7 7 7 6 6 6 6 5
5 5 4 4 4 3 3 3 2 2 2 3 3 3 3 3 2 2 2 2 2 3 5 6 6 6 6 7 8 8 7 7 7 7 7 8 8 8 8 7 7 6 5 5 5 5 5
5 5 5 4 4 4 3 3 3 2 2 2 3 4 4 4 4 3 3 3 4 5 6 6 6 6 6 7 7 7 7 7 7 7 8 8 8 8 8 7 6 6 5 4 4 5 5
5 5 5 5 4 4 4 3 3 3 2 2 2 3 4 5 5 4 4 4 5 5 6 6 6 6 6 6 7 7 7 7 7 8 8 8 8 7 7 6 5 4 3 3 4 4 5
5 5 5 5 5 4 4 3 3 3 3 2 2 3 4 4 4 4 4 4 5 5 5 6 5 5 6 6 6 7 8 8 7 7 7 7 6 6 5 5 4 3 3 3 3 4 5
5 5 5 5 5 5 4 4 3 3 3 3 3 3 4 4 4 4 4 4 4 5 5 5 5 5 5 6 6 7 8 8 7 7 6 6 5 5 5 5 4 3 3 3 4 5 5
5 5 5 5 5 5 5 4 4 4 4 4 4 4 4 5 5 5 5 5 5 5 5 5 5 5 5 6 6 7 8 8 7 6 5 5 4 5 5 5 4 4 3 3 4 5 5
5 5 5 5 5 5 5 5 4 4 5 5 4 4 5 5 5 5 5 5 5 5 5 5 5 4 5 6 6 7 8 8 7 5 5 4 5 5 5 5 4 4 4 4 4 5 5
6 6 5 5 5 5 5 5 5 5 5 5 5 5 5 6 6 6 6 6 6 5 4 4 4 4 5 6 7 7 8 8 7 6 5 5 5 5 5 5 4 4 5 5 5 4 4
6 6 6 5 5 5 5 5 5 5 5 6 6 6 6 6 6 6 6 6 5 4 3 4 4 5 6 6 7 8 8 8 7 6 6 6 6 6 5 5 6 6 6 6 5 4 3
7 7 6 5 5 5 5 5 6 6 6 7 7 7 7 7 7 7 7 6 5 3 3 3 4 5 6 7 7 8 8 8 7 6 6 6 6 7 6 6 7 6 6 5 4 3 2
7 7 6 6 6 5 5 5 6 6 7 7 8 8 8 7 7 7 7 6 4 3 3 4 5 5 6 6 7 7 7 7 6 5 5 5 6 7 7 7 6 6 5 3 2 1 1
8 7 7 6 6 6 6 6 6 6 7 9 9 9 8 8 7 7 6 5 3 3 4 5 5 5 5 6 6 6 6 6 6 5 4 4 4 6 7 7 6 5 4 3 1 1 1
8 8 7 7 7 6 6 6 7 7 8 9 9 8 8 8 8 7 6 4 3 4 5 5 5 5 4 5 5 5 5 5 6 6 5 4 4 6 7 7 7 5 5 4 2 2 1
9 9 8 8 8 7 7 7 7 7 8 8 8 8 8 8 8 8 6 4 5 6 6 6 5 4 4 4 4 5 5 6 6 7 6 5 4 5 7 7 7 6 5 4 3 2 1
9 9 9 9 8 8 7 7 7 7 7 7 7 7 8 9 9 7 6 5 6 8 8 7 5 5 4 4 4 4 5 6 7 7 7 6 5 5 5 6 6 6 5 4 4 2 2
9 9 10 9 9 9 8 8 8 8 8 7 7 7 8 9 8 7 6 7 8 8 8 7 7 6 5 5 5 5 5 7 8 8 7 6 5 4 4 6 6 6 5 5 4 3 3
9 9 10 10 10 9 9 9 8 8 8 7 7 7 8 8 7 7 7 8 9 9 9 8 8 7 7 6 5 5 6 8 9 9 8 7 5 3 3 5 6 6 5 6 5 4 3
9 9 10 10 10 10 10 9 9 8 8 7 7 6 7 7 6 6 7 8 8 9 9 9 9 8 7 7 6 6 7 8 10 10 9 8 6 4 4 5 5 5 6 6 6 4 3
9 9 9 10 10 10 10 10 10 9 8 8 7 7 7 6 6 6 6 6 7 8 9 9 8 8 8 7 7 7 7 8 9 10 10 8 6 5 5 6 6 6 6 6 5 4 4
9 9 9 9 9 10 10 10 10 10 9 9 8 8 7 7 6 6 6 6 6 6 7 7 7 7 7 7 7 7 8 8 8 9 8 7 6 5 5 5 5 5 5 5 4 4 4
9 9 9 9 9 10 10 10 10 10 10 9 9 9 8 7 7 7 6 6 6 6 6 6 6 6 6 7 7 7 7 7 7 7 6 5 5 4 4 4 4 4 4 3 3 3 4
9 9 9 9 9 9 10 10 10 10 10 10 10 9 8 7 7 7 7 7 7 7 7 7 7 7 7 7 7 6 6 6 6 5 5 4 4 4 3 3 3 3 4 4 3 4 4
9 9 9 9 9 9 10 10 10 10 10 10 10 9 9 7 7 8 8 7 7 7 7 7 8 8 8 8 6 5 5 5 5 5 5 5 4 4 4 3 3 4 4 4 4 4 5
10 10 10 9 9 9 9 10 10 10 10 10 10 10 9 8 8 8 8 8 7 7 7 7 8 8 8 7 6 5 4 5 5 5 5 5 5 4 4 4 4 5 5 5 5 5 5
11 11 11 10 9 9 9 9 10 10 10 10 10 10 10 9 9 9 9 8 8 8 7 8 8 8 7 6 6 5 5 5 5 5 5 5 5 4 4 4 5 6 6 6 5 5 6
12 12 12 11 10 10 9 9 9 10 10 10 10 10 10 10 10 9 9 9 9 8 8 8 8 7 7 6 6 5 5 5 5 5 5 5 5 5 4 4 5 6 6 6 6 6 7
13 13 12 12 11 10 10 9 9 9 9 10 10 10 10 10 10 9 9 9 9 9 8 8 8 7 7 6 6 6 6 6 5 5 5 5 5 5 4 4 5 6 6 6 6 6 6